Location: Campestrin
(46.4667°N, 11.7167°E)
Time: 04:54:58
(UTC+00:00)

Cosmos 1633 - Pass Details

Date: 18 April 2021
Orbit: 460 x 478 km, 82.5° (Epoch: 15 May)

Event Time Altitude Azimuth Distance (km) Brightness Sun altitude
Rises 19:23:51 0° 2° (N) 2,541 6.6 -13.1°
Reaches altitude 10° 19:26:16 10° 18° (NNE) 1,654 5.4 -13.5°
Maximum altitude 19:29:13 23° 72° (ENE) 1,051 3.9 -13.9°
Enters shadow 19:29:57 22° 92° (E) 1,096 3.9 -14.0°
